Regional Weather Roundup
Issued by NWS

Home | Current Version | Previous Version | Text Only | Print | Product List | Glossary Off
Versions: 1 2 3 4 5 6 7 8 9 10 11 12 13 14 15 16 17 18 19 20 21 22 23 24 25 26 27 28 29 30 31 32 33 34 35 36 37 38 39 40 41 42 43 44 45 46 47 48 49 50

000
ASUS43 KIND 251859
RWRIN

WEATHER ROUNDUP FOR INDIANA
NATIONAL WEATHER SERVICE INDIANAPOLIS IN
300 PM EDT WED MAY 25 2016

NOTE: "FAIR" INDICATES FEW OR NO CLOUDS BELOW 12,000 FEET WITH NO
SIGNIFICANT WEATHER AND/OR OBSTRUCTIONS TO VISIBILITY.

* - STATION DOES NOT REPORT WEATHER SUCH AS PRECIPITATION OR FOG.

+ - STATION NOT QUALITY CONTROLLED BY THE NATIONAL WEATHER SERVICE.
    USE DATA WITH CAUTION...ESPECIALLY DEWPOINT AND RELATIVE
    HUMIDITY OBSERVATIONS.

INZ001>003-010>013-019-020-252000-
NORTHWEST INDIANA

CITY           SKY/WX    TMP DP  RH WIND       PRES   REMARKS
GARY /AIRPORT/ PTSUNNY   86  68  54 S12       29.97F
RENSSELAER +   MOSUNNY   86  54  32 S12G22    29.98F

$$

LMZ046-743>745-252000-
SOUTHERN LAKE MICHIGAN

STATION/POSITION TIME  TEMP    WIND        PRES    WAVE
                       AIR SEA DIR/SP/G            HT
                 (UTC) (F)     (DEG/KT/KT) (MB)    (FT)
BURNS HARBOR     1800   82     190/  8/ 14 1015.6F
MICHIGAN CITY    1800   80     200/  6/  8   N/A
5NW MICH CITY    1800   68 61   10/  4/  8   N/A     0

$$

INZ004-005-014>016-021>024-252000-
NORTH CENTRAL INDIANA

CITY           SKY/WX    TMP DP  RH WIND       PRES   REMARKS
ELKHART        MOSUNNY   82  64  54 S12       30.01F
GOSHEN         MOSUNNY   83  57  41 S14       30.01F
SOUTH BEND     MOSUNNY   82  59  45 S12       30.00F

$$

INZ006>009-017-018-025>027-252000-
NORTHEAST INDIANA

CITY           SKY/WX    TMP DP  RH WIND       PRES   REMARKS
ANGOLA *+      PTSUNNY   81  61  50 S12       30.04F
FORT WAYNE     PTSUNNY   83  59  44 S12       30.04F

$$

INZ028-029-035-036-043>045-051>053-252000-
WEST CENTRAL INDIANA

CITY           SKY/WX    TMP DP  RH WIND       PRES   REMARKS
CRAWFORDSVL +  MOSUNNY   82  62  50 S14G24    30.03F
GREENCASTLE +  MOSUNNY   81  68  65 S5G17     30.05F
LAFAYETTE      MOSUNNY   83  60  45 SW12G22   30.00F
TERRE HAUTE    MOSUNNY   82  64  54 SW17      30.03F

$$

INZ030>032-037>040-046>048-054>057-064-065-252000-
CENTRAL INDIANA

CITY           SKY/WX    TMP DP  RH WIND       PRES   REMARKS
ANDERSON       MOSUNNY   82  59  44 SW12G23   30.06
COLUMBUS       SUNNY     82  63  51 SW17      30.06F
INDIANAPOLIS   PTSUNNY   82  61  48 SW14G21   30.03F
-EAGLE CREEK   MOSUNNY   82  61  48 S8G20     30.03F
KOKOMO *+      SUNNY     84  63  48 SW16      30.02F
SHELBYVILLE    PTSUNNY   84  61  45 SW16      30.04F

$$

INZ033-034-041-042-049-050-058-059-252000-
EAST CENTRAL INDIANA

CITY           SKY/WX    TMP DP  RH WIND       PRES   REMARKS
MUNCIE         MOSUNNY   86  58  38 SW12G22   30.04F

$$

INZ060-061-067>069-081>083-085>088-252000-
SOUTHWEST INDIANA

CITY           SKY/WX    TMP DP  RH WIND       PRES   REMARKS
EVANSVILLE     LGT RAIN  71  67  87 SW10      30.10F
HUNTINGBURG *+ CLOUDY    75  64  69 W7        30.09F

$$

INZ062-063-066-070>080-084-089>092-252000-
SOUTH CENTRAL AND SOUTHEAST INDIANA

CITY           SKY/WX    TMP DP  RH WIND       PRES   REMARKS
BLOOMINGTON    CLOUDY    83  62  49 SW12G18   30.06F
MADISON *+     MOSUNNY   81  61  50 S10       30.12S
SEYMOUR +      SUNNY     84  64  51 S13G18    30.07F

$$




USA.gov is the U.S. government's official web portal to all federal, state and local government web resources and services.